Regional Weather Roundup
Issued by NWS Newport/Morehead, NC

Home | Current Version | Previous Version | Text Only | Print | Product List | Glossary On
Versions: 1 2 3 4 5 6 7 8 9 10 11 12 13 14 15 16 17 18 19 20 21 22 23 24 25 26 27 28 29 30 31 32 33 34 35 36 37 38 39 40 41 42 43 44 45 46 47 48 49 50
000
ASUS42 KMHX 270012
RWRMHX
WEATHER ROUNDUP FOR EASTERN NORTH CAROLINA
NATIONAL WEATHER SERVICE NEWPORT/MOREHEAD CITY NC
800 PM EDT THU MAR 26 2015

NOTE: "FAIR" INDICATES FEW OR NO CLOUDS BELOW 12,000 FEET
WITH NO SIGNIFICANT WEATHER AND/OR OBSTRUCTIONS TO VISIBILITY

NCZ015>017-031-032-045>047-102-103-270100-
NORTH COAST

CITY           SKY/WX    TMP DP  RH WIND       PRES   REMARKS
EDENTON        CLOUDY    67  58  70 SW13      29.75S
ELIZABETH CITY CLOUDY    66  58  75 S9        29.74S
KITTY HAWK     CLOUDY    64  56  75 S8G17     29.76S
MANTEO         CLOUDY    62  56  82 SW21      29.78R

$$

NCZ045>047-081-094-103-104-270100-
CENTRAL COAST

CITY           SKY/WX    TMP DP  RH WIND       PRES   REMARKS
FRISCO         CLOUDY    66  59  78 SW16G26   29.84R
SWANQUARTER      N/A     63 N/A N/A S10G18    29.77S

$$

NCZ095-097-098-100-101-270100-
SOUTHERN COAST

CITY           SKY/WX    TMP DP  RH WIND       PRES   REMARKS
BEAUFORT       CLOUDY    62  60  93 S12       29.82F
CEDAR ISLAND     N/A     66 N/A N/A S9G15     29.85S
JACKSONVILLE   CLOUDY    66  59  78 S7        29.79F
PINEY ISLAND   CLOUDY   N/A N/A N/A S13       29.82S
WILMINGTON     CLOUDY    67  57  70 S12       29.82R


$$

NCZ011>013-027>030-043-044-078>080-089-090>093-098-270100-
COASTAL PLAIN

CITY           SKY/WX    TMP DP  RH WIND       PRES   REMARKS
AHOSKIE        CLOUDY    66  56  69 S3        29.73S
CLINTON        CLOUDY    69  62  78 S6        29.77F
ELIZABETHTOWN  CLOUDY    68  60  76 S5        29.79S
GOLDSBORO      CLOUDY    70  69  97 CALM      29.74F
GREENVILLE     CLOUDY    70  57  64 S8        29.78F
HAVELOCK       CLOUDY    65  59  81 S9        29.82F
KENANSVILLE    CLOUDY    69  58  69 S5        29.78F
KINSTON        CLOUDY    68  57  68 S8        29.77F
NEW BERN       CLOUDY    67  58  72 S9        29.80F
RICHLANDS      CLOUDY    68  57  68 S7        29.79F
ROCKY MOUNT    CLOUDY    69  58  67 S7        29.74F
WASHINGTON     CLOUDY    69  55  61 SW7       29.77S
WHITEVILLE     CLOUDY    68  60  74 S7        29.80R

$$

AMZ130-135-150-152-154-156-158-170-250-252-270-ANZ085-086-088-633-658-670-270100-
MARINE OBSERVATIONS

STATION/POSITION TIME  TEMP    WIND        PRES    WAVE   SWELL
                       AIR SEA DIR/SP/G            HT/PER HT/PER
                 (UTC) (F)     (DEG/KT/KT) (MB)    (FT/S) (FT/S)
CHESAPEAKE LIGHT 2300   54     200/ 17/ 18 1007.2
64 E VA BEACH    2350   59 51  190/ 21/ 25 1007.0   10/10   7/10
DUCK             2300   66 41  200/ 16/ 22 1006.4
2 E DUCK         2311      42                N/A     5/ 9   2/11
10 NE DUCK       NOT AVBL
OREGON INLET     2300   62 59  190/ 22/ 25 1008.7
HATTERAS CG      2300   66 58  210/ 13/ 18 1010.7
CAPE LOOKOUT     0000   63     190/ 11/ 12 1009.8
BEAUFORT LAB     2300   62 57  200/ 12/ 16 1009.2
27 SE WRIGHTSVLE 2300   63 64  220/ 12/ 16 1012.6
5 SE WRIGHTSVLE  2300   60 56  210/  8/ 12 1009.9
225 S CAPE HAT   2350   71 69  180/ 17/ 21 1015.6    8/ 8   2/13
41 SE CHARLESTON 2350   71 71  190/ 14/ 16 1010.3    6/ 7   5/ 7

$$


USA.gov is the U.S. government's official web portal to all federal, state and local government web resources and services.